Dallas Redbird, TX

1:16 AM CDT on April 24, 2017 (GMT -0500)
Redbird

Weather History for KRBD - January, 2013

Change the Weather History Date:

Tuesday, January 8, 2013

  Actual Average Record
Temperature  
Mean Temperature 46 °F -  
Max Temperature 48 °F 54 °F 80 °F (2006)
Min Temperature 44 °F 36 °F 19 °F (2015)
Degree Days  
Heating Degree Days 19    
Moisture  
Dew Point 44 °F    
Average Humidity 89    
Maximum Humidity 100    
Minimum Humidity 61    
Precipitation  
Precipitation 1.40 in - - ()
Sea Level Pressure  
Sea Level Pressure 30.02 in    
Wind  
Wind Speed 6 mph (NE)    
Max Wind Speed 12 mph    
Max Gust Speed -    
Visibility 4 miles    
Events Rain , Thunderstorm    
Averages and records for this station are not official NWS values.
T = Trace of Precipitation, MM = Missing Value Source: NWS Daily Summary

Daily Weather History Graph

Daily Weather History Graph

Search for Another Location

Airport or City:

Trip Planner

Search our weather history database for the weather conditions in past years. The results will help you decide how hot, cold, wet, or windy it might be!

Date:

Astronomy

Jan. 08, 2013 Rise Set
Actual Time 7:30 AM CST 5:38 PM CST
Civil Twilight 7:03 AM CST 6:05 PM CST
Nautical Twilight 6:33 AM CST 6:35 PM CST
Astronomical Twilight 6:03 AM CST 7:05 PM CST
Moon 4:05 AM CST (1/8) 2:41 PM CST (1/8)
Length of Visible Light 11h 01m
Length of Day
10h 08m
Waning Crescent, 13% of the Moon is Illuminated
Jan 8
Waning Crescent
Jan 11
New
Jan 18
First Quarter
Jan 26
Full
Feb 3
Last Quarter

Hourly Weather History & Observations

Time (CST) Temp. Windchill Dew Point Humidity Pressure Visibility Wind Dir Wind Speed Gust Speed Precip Events Conditions
12:26 AM 44.6 °F 43.1 °F 32.0 °F 61% 30.10 in 10.0 mi ESE 3.5 mph - N/A   Overcast
12:53 AM 45.0 °F 43.5 °F 33.1 °F 63% 30.09 in 10.0 mi SE 3.5 mph - N/A   Overcast
1:53 AM 46.0 °F 43.9 °F 33.1 °F 61% 30.09 in 10.0 mi ESE 4.6 mph - N/A   Overcast
2:53 AM 46.0 °F 44.8 °F 34.0 °F 63% 30.08 in 10.0 mi East 3.5 mph - N/A   Overcast
3:53 AM 46.0 °F 43.9 °F 35.1 °F 66% 30.07 in 10.0 mi SE 4.6 mph - N/A   Overcast
4:53 AM 46.9 °F - 35.1 °F 63% 30.06 in 10.0 mi East 3.5 mph - N/A   Overcast
6:53 AM 46.9 °F - 36.0 °F 66% 30.06 in 10.0 mi East 4.6 mph - N/A   Overcast
7:53 AM 46.9 °F - 36.0 °F 66% 30.06 in 10.0 mi East 6.9 mph - N/A   Overcast
8:53 AM 46.0 °F 43.1 °F 39.9 °F 79% 30.09 in 7.0 mi East 5.8 mph - 0.01 in Rain Light Rain
9:18 AM 46.4 °F 43.5 °F 41.0 °F 81% 30.08 in 10.0 mi ENE 5.8 mph - 0.00 in   Overcast
9:53 AM 46.9 °F - 42.1 °F 83% 30.08 in 3.0 mi NNE 5.8 mph - 0.01 in Rain Light Rain
10:01 AM 46.4 °F 42.4 °F 42.8 °F 87% 30.08 in 2.5 mi ENE 8.1 mph - 0.01 in Rain Light Rain
10:09 AM 46.4 °F 43.5 °F 42.8 °F 87% 30.09 in 5.0 mi East 5.8 mph - 0.01 in Rain Light Rain
10:39 AM 46.4 °F 41.9 °F 42.8 °F 87% 30.07 in 2.5 mi ENE 9.2 mph - 0.01 in Rain Light Rain
10:53 AM 46.0 °F 41.0 °F 43.0 °F 89% 30.06 in 1.8 mi NE 10.4 mph - 0.04 in Rain Heavy Rain
10:59 AM 46.4 °F 43.5 °F 42.8 °F 87% 30.06 in 3.0 mi NE 5.8 mph - 0.00 in Rain Light Rain
11:37 AM 46.4 °F 42.9 °F 44.6 °F 93% 30.05 in 1.8 mi ENE 6.9 mph - 0.01 in Rain Light Rain
11:53 AM 46.9 °F - 45.0 °F 93% 30.02 in 1.5 mi NE 9.2 mph - 0.02 in Rain Light Rain
11:58 AM 46.4 °F 41.9 °F 44.6 °F 93% 30.02 in 2.0 mi ENE 9.2 mph - 0.00 in Rain Light Rain
12:13 PM 46.4 °F 41.9 °F 44.6 °F 93% 30.01 in 1.5 mi NE 9.2 mph - 0.01 in Rain Light Rain
12:32 PM 46.4 °F 43.5 °F 44.6 °F 93% 30.01 in 2.0 mi NE 5.8 mph - 0.03 in Rain Light Rain
12:40 PM 46.4 °F 43.5 °F 44.6 °F 93% 30.00 in 1.2 mi NE 5.8 mph - 0.03 in Rain Light Rain
12:53 PM 46.9 °F - 45.0 °F 93% 29.99 in 1.0 mi ENE 6.9 mph - 0.04 in Rain Light Rain
1:13 PM 46.4 °F 42.9 °F 44.6 °F 93% 29.98 in 2.0 mi ENE 6.9 mph - 0.01 in Rain Light Rain
1:21 PM 46.4 °F 44.3 °F 44.6 °F 93% 29.97 in 1.8 mi ENE 4.6 mph - 0.01 in Rain Rain
1:40 PM 46.4 °F 43.5 °F 44.6 °F 93% 29.97 in 2.5 mi ENE 5.8 mph - 0.02 in Rain Light Rain
1:53 PM 46.9 °F - 45.0 °F 93% 29.97 in 3.0 mi NE 5.8 mph - 0.02 in Rain Light Rain
2:01 PM 46.4 °F 42.4 °F 44.6 °F 93% 29.96 in 1.8 mi NE 8.1 mph - 0.01 in Rain Rain
2:16 PM 48.2 °F - 44.6 °F 87% 29.96 in 3.0 mi NE 5.8 mph - 0.02 in Rain Light Rain
2:26 PM 48.2 °F - 46.4 °F 93% 29.96 in 2.5 mi NNE 6.9 mph - 0.02 in Rain Light Rain
2:34 PM 48.2 °F - 44.6 °F 87% 29.96 in 3.0 mi NE 6.9 mph - 0.02 in Rain Light Rain
2:45 PM 48.2 °F - 46.4 °F 93% 29.97 in 1.8 mi NE 5.8 mph - 0.02 in   Overcast
2:53 PM 48.0 °F - 46.0 °F 93% 29.97 in 1.5 mi NE 6.9 mph - 0.02 in   Overcast
3:35 PM 48.2 °F - 46.4 °F 93% 29.96 in 2.0 mi ENE 6.9 mph - 0.02 in Rain Light Rain
3:46 PM 48.2 °F - 46.4 °F 93% 29.96 in 4.0 mi NE 6.9 mph - 0.02 in   Overcast
3:53 PM 48.0 °F - 46.0 °F 93% 29.96 in 3.0 mi NE 9.2 mph - 0.02 in   Overcast
4:40 PM 48.2 °F - 46.4 °F 93% 29.97 in 2.0 mi NNE 8.1 mph - N/A   Overcast
4:49 PM 48.2 °F - 46.4 °F 93% 29.97 in 1.2 mi NNE 8.1 mph - N/A   Overcast
4:53 PM 48.0 °F - 46.0 °F 93% 29.97 in 1.0 mi NNE 8.1 mph - N/A   Overcast
5:15 PM 48.2 °F - 46.4 °F 93% 29.97 in 2.5 mi NE 9.2 mph - N/A   Overcast
5:33 PM 48.2 °F - 46.4 °F 93% 29.99 in 1.8 mi North 8.1 mph - 0.00 in Rain Light Rain
5:53 PM 48.0 °F - 46.0 °F 93% 29.98 in 2.0 mi NE 8.1 mph - 0.03 in Rain Light Rain
6:06 PM 48.2 °F - 46.4 °F 93% 29.99 in 4.0 mi NE 5.8 mph - 0.00 in Rain Light Rain
6:53 PM 46.9 °F - 45.0 °F 93% 29.99 in 4.0 mi NE 8.1 mph - 0.04 in Rain Light Rain
7:11 PM 46.4 °F 41.9 °F 44.6 °F 93% 29.98 in 2.0 mi NE 9.2 mph - 0.06 in Rain Heavy Rain
7:24 PM 46.4 °F 41.5 °F 44.6 °F 93% 29.98 in 4.0 mi NE 10.4 mph - 0.09 in Rain Rain
7:37 PM 46.4 °F 41.9 °F 44.6 °F 93% 29.98 in 2.5 mi NNE 9.2 mph - 0.18 in Rain Heavy Rain
7:53 PM 46.9 °F - 46.0 °F 97% 29.99 in 3.0 mi NNE 5.8 mph - 0.22 in Rain Rain
8:18 PM 48.2 °F - 46.4 °F 93% 30.00 in 2.5 mi NNW 6.9 mph - 0.06 in Rain Rain
8:27 PM 48.2 °F - 46.4 °F 93% 30.01 in 3.0 mi NNW 9.2 mph - 0.08 in Rain Rain
8:53 PM 48.0 °F - 46.0 °F 93% 30.02 in 4.0 mi NNW 8.1 mph - 0.12 in Rain Light Rain
9:17 PM 48.2 °F - 46.4 °F 93% 30.03 in 5.0 mi North 11.5 mph - 0.01 in Rain , Thunderstorm Light Rain
9:32 PM 48.2 °F - 46.4 °F 93% 30.03 in 4.0 mi North 11.5 mph - 0.03 in Rain Rain
9:53 PM 46.9 °F - 46.0 °F 97% 30.06 in 3.0 mi North 6.9 mph - 0.10 in Rain Heavy Rain
10:00 PM 46.4 °F 41.1 °F 44.6 °F 93% 30.06 in 2.0 mi NNW 11.5 mph - 0.07 in Rain Heavy Rain
10:30 PM 46.4 °F 41.1 °F 44.6 °F 93% 30.07 in 3.0 mi NNW 11.5 mph - 0.19 in Rain Rain
10:41 PM 46.4 °F 42.4 °F 44.6 °F 93% 30.08 in 2.5 mi NNW 8.1 mph - 0.24 in Rain Heavy Rain
10:53 PM 46.9 °F - 46.0 °F 97% 30.08 in 2.0 mi North 8.1 mph - 0.33 in Rain Heavy Rain
11:04 PM 46.4 °F 41.9 °F 46.4 °F 100% 30.08 in 1.5 mi North 9.2 mph - 0.12 in Rain Heavy Rain
11:14 PM 46.4 °F 41.9 °F 44.6 °F 93% 30.07 in 2.0 mi North 9.2 mph - 0.20 in Rain Heavy Rain
11:22 PM 46.4 °F 41.9 °F 46.4 °F 100% 30.09 in 2.0 mi NNW 9.2 mph - 0.26 in Rain Heavy Rain
11:31 PM 46.4 °F 41.9 °F 46.4 °F 100% 30.08 in 2.5 mi North 9.2 mph - 0.30 in Rain Heavy Rain
11:41 PM 46.4 °F 41.9 °F 46.4 °F 100% 30.07 in 3.0 mi North 9.2 mph - 0.33 in Rain Rain
11:51 PM 48.2 °F - 46.4 °F 93% 30.08 in 3.0 mi North 9.2 mph - 0.37 in Rain Heavy Rain
11:53 PM 48.0 °F - 46.0 °F 93% 30.08 in 3.0 mi North 8.1 mph - 0.38 in Rain Heavy Rain